This demonstration page uses our WeatherBlox Daily Observations layout. Learn more.

Left ArrowRight Arrow

34.02893, -84.19858

Hourly Observations for April 27, 2022

Temp ( °F °C ) Dew Point ( °F °C ) Humidity (%) Winds ( mph kmh ) Pressure ( in mb ) Visibility ( mi km ) Precip ( " mm )
12:53 am 00:53 Clear 55 12.8 39 3.9 55 55 NW 9 15 30.16 1021 10 16 0.00 0.00
1:53 am 01:53 Clear 53 11.7 40 4.4 61 61 NNW 9 15 30.16 1021 10 16 0.00 0.00
2:53 am 02:53 Clear 50 10 40 4.4 68 68 NNW 8 13 30.15 1021 10 16 0.00 0.00
3:53 am 03:53 Clear 48 8.9 39 3.9 71 71 NNW 7 11 30.15 1021 10 16 0.00 0.00
4:53 am 04:53 Clear 46 7.8 38 3.3 73 73 NNW 5 7 30.15 1021 10 16 0.00 0.00
5:53 am 05:53 Clear 44 6.7 38 3.3 79 79 Calm 30.16 1021 10 16 0.00 0.00
6:53 am 06:53 Sunny 42 5.6 37 2.8 82 82 N 5 7 30.17 1022 10 16 0.00 0.00
7:53 am 07:53 Sunny 47 8.3 39 3.9 74 74 Calm 30.19 1022 10 16 0.00 0.00
8:53 am 08:53 Sunny 53 11.7 39 3.9 59 59 N 5 7 30.20 1023 10 16 0.00 0.00
9:53 am 09:53 Sunny 60 15.6 38 3.3 44 44 NE 5 7 30.19 1022 10 16 0.00 0.00
10:53 am 10:53 Sunny 64 17.8 38 3.3 38 38 NNE 7 11 30.19 1023 10 16 0.00 0.00
11:53 am 11:53 Sunny 67 19.4 37 2.8 33 33 VRB 5 7 30.19 1023 10 16 0.00 0.00
12:53 pm 12:53 Sunny 68 20 33 0.6 27 27 Calm 30.17 1022 10 16 0.00 0.00
1:53 pm 13:53 Sunny 72 22.2 36 2.2 27 27 undefined N/A 30.14 1021 10 16 0.00 0.00
2:53 pm 14:53 Sunny 72 22.2 33 0.6 24 24 Calm 30.12 1020 10 16 0.00 0.00
3:53 pm 15:53 Sunny 74 23.3 30 -1.1 20 20 NW 5 7 30.10 1019 10 16 0.00 0.00
4:53 pm 16:53 Sunny 75 23.9 32 0 21 21 NNE 5 7 30.08 1019 10 16 0.00 0.00
5:53 pm 17:53 Sunny 75 23.9 34 1.1 22 22 Calm 30.07 1018 10 16 0.00 0.00
6:53 pm 18:53 Sunny 73 22.8 39 3.9 29 29 NW 10 17 30.08 1019 10 16 0.00 0.00
7:53 pm 19:53 Sunny 69 20.6 39 3.9 33 33 NW 8 13 30.09 1019 10 16 0.00 0.00
8:53 pm 20:53 Clear 65 18.3 39 3.9 39 39 NW 9 15 30.09 1019 10 16 0.00 0.00
9:53 pm 21:53 Clear 62 16.7 39 3.9 43 43 NW 5 7 30.11 1020 10 16 0.00 0.00
10:53 pm 22:53 Clear 56 13.3 40 4.4 55 55 Calm 30.12 1020 10 16 0.00 0.00
11:53 pm 23:53 Clear 54 12.2 41 5 62 62 Calm 30.13 1020 10 16 0.00 0.00

Powered by AerisWeather